Nuiqsut, AK

12:08 AM AKDT on May 26, 2017 (GMT -0800)
Nuiqsut

Weather History for PAQT - October, 2011

Change the Weather History Date:

Friday, October 28, 2011

  Actual Average (PAKU) Record (PAKU)
Temperature  
Mean Temperature 14 °F -  
Max Temperature 19 °F 12 °F 30 °F (2002)
Min Temperature 9 °F 3 °F -17 °F (1985)
Degree Days  
Heating Degree Days 51    
Moisture  
Dew Point 16 °F    
Average Humidity 94    
Maximum Humidity 100    
Minimum Humidity 92    
Precipitation  
Precipitation 0.00 in - - ()
Sea Level Pressure  
Sea Level Pressure 29.56 in    
Wind  
Wind Speed 8 mph (NE)    
Max Wind Speed 20 mph    
Max Gust Speed 24 mph    
Visibility 5 miles    
Events Snow    
Averages and records for this station are not official NWS values.
T = Trace of Precipitation, MM = Missing Value Source: NWS Daily Summary

Daily Weather History Graph

Daily Weather History Graph

Search for Another Location

Airport or City:

Trip Planner

Search our weather history database for the weather conditions in past years. The results will help you decide how hot, cold, wet, or windy it might be!

Date:

Astronomy

Oct. 28, 2011 Rise Set
Actual Time 10:17 AM AKDT 5:16 PM AKDT
Civil Twilight 9:05 AM AKDT 6:28 PM AKDT
Nautical Twilight 7:52 AM AKDT 7:41 PM AKDT
Astronomical Twilight 6:40 AM AKDT 8:52 PM AKDT
Moon No Moon Rise No Moon Set
Length of Visible Light 9h 22m
Length of Day
6h 59m
Waxing Crescent, 6% of the Moon is Illuminated
Oct 28
Waxing Crescent
Nov 2
First Quarter
Nov 10
Full
Nov 18
Last Quarter
Nov 24
New

Hourly Weather History & Observations

Time (AKDT) Temp. Windchill Dew Point Humidity Pressure Visibility Wind Dir Wind Speed Gust Speed Precip Events Conditions
12:53 AM 10.9 °F -1.8 °F 10.0 °F 96% 29.66 in 10.0 mi ENE 9.2 mph - N/A   Clear
1:53 AM 9.0 °F -0.9 °F 9.0 °F 100% 29.66 in 10.0 mi NNE 5.8 mph - N/A   Overcast
2:53 AM 14.0 °F 2.0 °F 12.0 °F 92% 29.65 in 10.0 mi NE 9.2 mph - N/A   Overcast
3:53 AM 17.1 °F 5.8 °F 15.1 °F 92% 29.63 in 2.5 mi NE 9.2 mph - 0.00 in Snow Light Snow
4:05 AM 15.8 °F 6.1 °F 15.8 °F 100% 29.63 in 8.0 mi NE 6.9 mph - 0.00 in Snow Light Snow
4:53 AM 10.9 °F -0.8 °F 9.0 °F 92% 29.62 in 10.0 mi NNE 8.1 mph - 0.00 in   Partly Cloudy
5:53 AM 12.9 °F 3.8 °F 12.0 °F 96% 29.62 in 10.0 mi ENE 5.8 mph - N/A   Overcast
6:53 AM 12.9 °F 3.8 °F 10.9 °F 92% 29.61 in 9.0 mi NE 5.8 mph - 0.00 in   Overcast
7:53 AM 16.0 °F 7.4 °F 14.0 °F 92% 29.60 in 2.5 mi NE 5.8 mph - 0.00 in Snow Light Snow
8:01 AM 15.8 °F 7.2 °F 14.0 °F 93% 29.59 in 1.2 mi NE 5.8 mph - 0.00 in Snow Light Snow
8:09 AM 17.6 °F 8.2 °F 15.8 °F 93% 29.59 in 3.0 mi NE 6.9 mph - 0.00 in Snow Light Snow
8:20 AM 17.6 °F 8.2 °F 15.8 °F 93% 29.59 in 2.5 mi NE 6.9 mph - 0.00 in Snow Light Snow
8:30 AM 17.6 °F 9.3 °F 15.8 °F 93% 29.59 in 6.0 mi NE 5.8 mph - 0.00 in Snow Light Snow
8:39 AM 17.6 °F 9.3 °F 15.8 °F 93% 29.58 in 9.0 mi NE 5.8 mph - 0.00 in   Overcast
8:53 AM 17.1 °F 8.7 °F 15.1 °F 92% 29.59 in 10.0 mi NE 5.8 mph - 0.00 in   Overcast
9:45 AM 12.2 °F 1.7 °F 12.2 °F 100% 29.58 in 9.0 mi NE 6.9 mph - 0.00 in Snow Light Snow
9:53 AM 12.9 °F 2.6 °F 12.0 °F 96% 29.58 in 10.0 mi NE 6.9 mph - 0.00 in   Mostly Cloudy
10:53 AM 9.0 °F 0.6 °F 8.1 °F 96% 29.59 in 10.0 mi ENE 4.6 mph - N/A   Overcast
11:26 AM 12.2 °F 4.3 °F 10.4 °F 92% 29.57 in 10.0 mi ENE 4.6 mph - N/A   Overcast
11:43 AM 12.2 °F 6.1 °F 10.4 °F 92% 29.57 in 10.0 mi NE 3.5 mph - N/A   Overcast
11:53 AM 12.9 °F 5.2 °F 10.9 °F 92% 29.58 in 10.0 mi NNE 4.6 mph - N/A   Overcast
12:53 PM 12.9 °F 2.6 °F 10.9 °F 92% 29.58 in 10.0 mi NNE 6.9 mph - N/A   Overcast
1:53 PM 16.0 °F 4.4 °F 14.0 °F 92% 29.57 in 10.0 mi NE 9.2 mph - N/A   Mostly Cloudy
2:53 PM 17.1 °F 7.6 °F 16.0 °F 96% 29.57 in 10.0 mi NE 6.9 mph - N/A   Overcast
3:20 PM 17.6 °F 6.4 °F 15.8 °F 93% 29.56 in 10.0 mi NE 9.2 mph - N/A   Overcast
3:53 PM 18.0 °F 8.7 °F 16.0 °F 92% 29.55 in 5.0 mi NE 6.9 mph - 0.00 in Snow Light Snow
4:08 PM 17.6 °F 8.2 °F 15.8 °F 93% 29.55 in 1.8 mi NE 6.9 mph - 0.00 in Snow Light Snow
4:26 PM 17.6 °F 7.3 °F 15.8 °F 93% 29.54 in 3.0 mi NE 8.1 mph - 0.00 in Snow Light Snow
4:42 PM 19.4 °F 11.5 °F 17.6 °F 93% 29.55 in 2.5 mi ENE 5.8 mph - 0.00 in Snow Light Snow
4:49 PM 17.6 °F 9.3 °F 15.8 °F 93% 29.54 in 5.0 mi NE 5.8 mph - 0.00 in Snow Light Snow
4:53 PM 18.0 °F 9.8 °F 17.1 °F 96% 29.55 in 2.0 mi NE 5.8 mph - 0.00 in Snow Light Snow
5:00 PM 17.6 °F 8.2 °F 17.6 °F 100% 29.54 in 1.0 mi NE 6.9 mph - 0.00 in Snow Light Snow
5:08 PM 19.4 °F 11.5 °F 17.6 °F 93% 29.54 in 0.8 mi NE 5.8 mph - 0.00 in Snow Light Snow
5:15 PM 19.4 °F 9.5 °F 17.6 °F 93% 29.54 in 2.0 mi NE 8.1 mph - 0.00 in Snow Light Snow
5:23 PM 19.4 °F 9.5 °F 17.6 °F 93% 29.54 in 5.0 mi NE 8.1 mph - 0.00 in Snow Light Snow
5:31 PM 19.4 °F 8.6 °F 17.6 °F 93% 29.54 in 2.5 mi NE 9.2 mph - 0.00 in Snow Light Snow
5:43 PM 19.4 °F 8.6 °F 17.6 °F 93% 29.54 in 4.0 mi NE 9.2 mph - 0.00 in Snow Light Snow
5:47 PM 19.4 °F 10.4 °F 17.6 °F 93% 29.54 in 1.5 mi NE 6.9 mph - 0.00 in Snow Light Snow
5:53 PM 19.0 °F 9.0 °F 18.0 °F 96% 29.55 in 1.0 mi NE 8.1 mph - 0.00 in Snow Light Snow
6:01 PM 19.4 °F 9.5 °F 17.6 °F 93% 29.54 in 3.0 mi NE 8.1 mph - 0.00 in Snow Light Snow
6:53 PM 19.0 °F 9.0 °F 18.0 °F 96% 29.54 in 6.0 mi NE 8.1 mph - 0.00 in Snow Light Snow
7:53 PM 19.0 °F 11.1 °F 17.1 °F 92% 29.53 in 4.0 mi NE 5.8 mph - 0.00 in Snow Light Snow
8:14 PM 19.4 °F 9.5 °F 17.6 °F 93% 29.53 in 1.8 mi NE 8.1 mph - 0.00 in Snow Light Snow
8:53 PM 19.9 °F 9.3 °F 18.0 °F 92% 29.53 in 1.8 mi NE 9.2 mph - 0.00 in Snow Light Snow
9:01 PM 19.4 °F 8.6 °F 17.6 °F 93% 29.53 in 2.5 mi NE 9.2 mph - 0.00 in Snow Light Snow
9:05 PM 19.4 °F 8.6 °F 17.6 °F 93% 29.53 in 3.0 mi NE 9.2 mph - 0.00 in Snow Light Snow
9:16 PM 19.4 °F 8.6 °F 17.6 °F 93% 29.52 in 2.0 mi NE 9.2 mph - 0.00 in Snow Light Snow
9:18 PM 19.4 °F 9.5 °F 17.6 °F 93% 29.52 in 1.8 mi NE 8.1 mph - 0.00 in Snow Light Snow
9:53 PM 19.9 °F 6.7 °F 18.0 °F 92% 29.52 in 1.5 mi NE 13.8 mph - 0.00 in Snow Light Snow
10:15 PM 19.4 °F 6.0 °F 19.4 °F 100% 29.52 in 1.0 mi NE 13.8 mph - 0.00 in Snow Light Snow
10:34 PM 19.4 °F 5.0 °F 19.4 °F 100% 29.52 in 2.0 mi NE 16.1 mph - 0.00 in Snow Light Snow
10:41 PM 19.4 °F 4.5 °F 19.4 °F 100% 29.52 in 1.5 mi NE 17.3 mph - 0.00 in Snow Light Snow
10:53 PM 19.9 °F 5.7 °F 18.0 °F 92% 29.53 in 1.8 mi NE 16.1 mph - 0.00 in Snow Light Snow
11:04 PM 19.4 °F 4.5 °F 17.6 °F 93% 29.52 in 2.0 mi NE 17.3 mph - 0.00 in Snow Light Snow
11:20 PM 19.4 °F 4.1 °F 17.6 °F 93% 29.52 in 1.8 mi NE 18.4 mph 24.2 mph 0.00 in Snow Light Snow
11:31 PM 19.4 °F 3.6 °F 17.6 °F 93% 29.52 in 2.5 mi NE 19.6 mph - 0.00 in Snow Light Snow
11:51 PM 19.4 °F 5.5 °F 17.6 °F 93% 29.52 in 1.8 mi NE 15.0 mph - 0.00 in Snow Light Snow
11:53 PM 19.9 °F 7.3 °F 18.0 °F 92% 29.52 in 1.5 mi NE 12.7 mph - 0.00 in Snow Light Snow